DW8050 Weather Reports


time (UTC)temp
F
wind
direction
speed
knots
gust
knots
rain 1hr
in
rain 24hr
in
rain mn
in
humidity
%
barometer
mb
20260508014536 39 307 0.9 0.9 0.00 0.00 0.00 78 1007.4
20260508014017 40 0 0.0 0.9 0.00 0.00 0.00 78 1007.5
20260508013519 40 335 0.0 0.9 0.00 0.00 0.00 77 1007.5
20260508013035 41 335 0.0 1.7 0.00 0.00 0.00 76 1007.5
20260508012516 41 335 0.0 1.7 0.00 0.00 0.00 75 1007.4
20260508012017 42 335 0.9 1.7 0.00 0.00 0.00 74 1007.3
20260508011532 42 320 0.0 1.7 0.00 0.00 0.00 73 1007.4
20260508011018 43 320 0.9 1.7 0.00 0.00 0.00 73 1007.4
20260508010515 43 321 0.0 1.7 0.00 0.00 0.00 72 1007.4
20260508010042 43 321 0.9 1.7 0.00 0.00 0.00 72 1007.4
20260508005516 43 321 0.9 2.6 0.00 0.00 0.00 71 1007.4
20260508005017 44 320 0.9 4.3 0.00 0.00 0.00 71 1007.4
20260508004542 44 323 1.7 6.1 0.00 0.00 0.00 70 1007.4
20260508004017 44 315 1.7 6.1 0.00 0.00 0.00 70 1007.3
20260508003516 45 306 1.7 6.1 0.00 0.00 0.00 69 1007.1
20260508003030 45 342 2.6 6.1 0.00 0.00 0.00 68 1007.1
20260508002516 45 323 2.6 5.2 0.00 0.00 0.00 67 1007.2
20260508002020 45 312 3.5 6.1 0.00 0.00 0.00 66 1007.0
20260508001541 46 311 1.7 6.1 0.00 0.00 0.00 65 1007.0
20260508001016 46 295 1.7 6.1 0.00 0.00 0.00 65 1007.0
20260508000517 46 291 1.7 4.3 0.00 0.00 0.00 66 1007.0
20260508000030 46 306 1.7 3.5 0.00 0.00 0.00 66 1006.9
20260507235519 46 319 1.7 6.1 0.00 0.00 0.00 66 1006.9
20260507235015 47 288 1.7 6.1 0.00 0.00 0.00 65 1006.8
20260507234533 47 292 1.7 7.0 0.00 0.00 0.00 65 1006.8
20260507234016 47 293 1.7 7.8 0.00 0.00 0.00 65 1006.8
20260507233519 47 298 3.5 9.6 0.00 0.00 0.00 64 1006.6
20260507233034 48 302 3.5 9.6 0.00 0.00 0.00 65 1006.6
20260507232515 48 302 1.7 12.2 0.00 0.00 0.00 65 1006.5
20260507232018 48 306 3.5 12.2 0.00 0.00 0.00 64 1006.5
20260507231535 48 296 5.2 12.2 0.00 0.00 0.00 63 1006.5
20260507231016 48 309 5.2 11.3 0.00 0.00 0.00 62 1006.5
20260507230516 47 290 5.2 11.3 0.00 0.00 0.00 63 1006.6
20260507230032 47 298 4.3 11.3 0.00 0.00 0.00 62 1006.5
20260507225516 47 294 5.2 9.6 0.00 0.00 0.00 63 1006.6
20260507225017 47 307 4.3 9.6 0.00 0.00 0.00 64 1006.6
20260507224530 46 306 4.3 10.4 0.00 0.00 0.00 65 1006.5
20260507224016 46 313 5.2 13.0 0.00 0.00 0.00 66 1006.4
20260507223516 45 276 5.2 14.8 0.00 0.00 0.00 67 1006.5
20260507223035 46 317 7.8 15.6 0.00 0.00 0.00 68 1006.6
20260507222519 46 298 6.1 15.6 0.00 0.00 0.00 66 1006.5
20260507222018 48 284 9.6 15.6 0.00 0.00 0.00 63 1006.7
20260507221539 49 305 6.1 12.2 0.00 0.00 0.00 61 1006.5
20260507221018 50 318 3.5 14.8 0.00 0.00 0.00 63 1006.2
20260507220518 50 23 5.2 17.4 0.00 0.00 0.00 62 1006.2
20260507220033 50 278 9.6 17.4 0.00 0.00 0.00 58 1006.1
20260507215516 50 280 9.6 15.6 0.00 0.00 0.00 59 1006.1
20260507215017 50 272 7.0 14.8 0.00 0.00 0.00 60 1006.2
20260507214532 50 277 7.0 15.6 0.00 0.00 0.00 61 1006.1
20260507214017 49 289 8.7 15.6 0.00 0.00 0.00 60 1006.0
20260507213516 49 284 7.8 12.2 0.00 0.00 0.00 61 1006.0
20260507213033 49 303 7.8 12.2 0.00 0.00 0.00 60 1005.9
20260507212515 49 281 4.3 12.2 0.00 0.00 0.00 62 1006.0
20260507212017 49 259 7.0 11.3 0.00 0.00 0.00 63 1005.9
20260507211530 48 311 7.0 13.0 0.00 0.00 0.00 63 1005.9
20260507211020 48 268 5.2 13.0 0.00 0.00 0.00 64 1006.0
20260507210519 49 296 8.7 17.4 0.00 0.00 0.00 64 1005.9
20260507210030 49 300 8.7 17.4 0.00 0.00 0.00 61 1005.9
20260507205516 49 280 8.7 13.9 0.00 0.00 0.00 63 1005.9
20260507205017 48 293 7.8 14.8 0.00 0.00 0.00 65 1005.9
20260507204532 48 294 8.7 15.6 0.00 0.00 0.00 66 1005.8
20260507204016 48 298 7.8 16.5 0.00 0.00 0.00 65 1005.8
20260507203520 49 309 11.3 16.5 0.00 0.00 0.00 64 1005.7
20260507203051 50 308 8.7 16.5 0.00 0.00 0.00 61 1005.5
20260507202518 50 306 7.8 17.4 0.00 0.00 0.00 61 1005.5
20260507202016 50 291 9.6 17.4 0.00 0.00 0.00 60 1005.4
20260507201532 50 261 9.6 17.4 0.00 0.00 0.00 59 1005.4
20260507201017 50 267 10.4 20.0 0.00 0.00 0.00 56 1005.4
20260507200521 50 293 9.6 20.0 0.00 0.00 0.00 57 1005.4
20260507200035 50 285 11.3 20.0 0.00 0.00 0.00 57 1005.4
20260507195516 49 272 11.3 18.2 0.00 0.00 0.00 60 1005.3
20260507195016 49 284 7.8 15.6 0.00 0.00 0.00 59 1005.2
20260507194535 49 290 7.0 14.8 0.00 0.00 0.00 59 1005.2
20260507194019 49 300 9.6 14.8 0.00 0.00 0.00 59 1005.2
20260507193516 48 285 8.7 18.2 0.00 0.00 0.00 62 1005.2
20260507193030 49 277 9.6 18.2 0.00 0.00 0.00 63 1005.2
20260507192516 49 297 10.4 17.4 0.00 0.00 0.00 61 1005.2
20260507192015 50 291 9.6 17.4 0.00 0.00 0.00 58 1005.2
20260507191536 51 293 10.4 17.4 0.00 0.00 0.00 57 1004.9
20260507191017 52 293 10.4 17.4 0.00 0.00 0.00 53 1004.8
20260507190516 52 264 11.3 20.0 0.00 0.00 0.00 48 1004.7
20260507190032 52 265 11.3 21.7 0.00 0.00 0.00 48 1004.8
20260507185516 52 292 8.7 21.7 0.00 0.00 0.00 48 1004.8
20260507185016 54 277 13.9 21.7 0.00 0.00 0.00 48 1004.7
20260507184530 53 294 13.9 23.5 0.00 0.00 0.00 48 1004.6
20260507184017 52 286 16.5 23.5 0.00 0.00 0.00 51 1004.6
20260507183516 51 284 13.9 20.9 0.00 0.00 0.00 51 1004.4
20260507183035 51 273 12.2 20.9 0.00 0.00 0.00 51 1004.6
20260507182516 51 263 9.6 19.1 0.00 0.00 0.00 54 1004.6
20260507182016 51 273 8.7 16.5 0.00 0.00 0.00 52 1004.6
20260507181535 51 267 8.7 16.5 0.00 0.00 0.00 53 1004.6
20260507181020 51 282 10.4 16.5 0.00 0.00 0.00 54 1004.6
20260507180516 51 273 8.7 12.2 0.00 0.00 0.00 54 1004.6
20260507180035 51 263 7.8 16.5 0.00 0.00 0.00 57 1004.5
20260507175519 51 293 8.7 16.5 0.00 0.00 0.00 55 1004.5
20260507175017 51 281 8.7 15.6 0.00 0.00 0.00 55 1004.5
20260507174540 51 312 7.8 16.5 0.00 0.00 0.00 53 1004.5
20260507174020 51 307 10.4 20.9 0.00 0.00 0.00 50 1004.5
20260507173516 51 260 7.8 20.9 0.00 0.00 0.00 52 1004.4
20260507173052 51 287 13.9 20.9 0.00 0.00 0.00 54 1004.4
20260507172517 51 236 11.3 20.0 0.00 0.00 0.00 53 1004.3
20260507172016 51 270 13.9 20.0 0.00 0.00 0.00 51 1004.4
20260507171540 51 284 12.2 18.2 0.00 0.00 0.00 53 1004.4
20260507171017 51 275 11.3 18.2 0.00 0.00 0.00 53 1004.3
20260507170516 51 264 10.4 18.2 0.00 0.00 0.00 52 1004.3
20260507170038 51 275 11.3 20.0 0.00 0.00 0.00 53 1004.4
20260507165521 51 265 11.3 20.9 0.00 0.01 0.00 52 1004.3
20260507165016 52 268 13.0 20.9 0.00 0.01 0.00 49 1004.3
20260507164534 52 288 13.0 21.7 0.00 0.01 0.00 53 1004.2
20260507164017 53 276 14.8 21.7 0.00 0.01 0.00 50 1004.3
20260507163520 52 266 10.4 20.9 0.00 0.01 0.00 51 1004.2
20260507163032 52 265 11.3 19.1 0.00 0.01 0.00 49 1004.2
20260507162520 53 264 13.0 18.2 0.00 0.01 0.00 51 1004.1
20260507162016 53 261 9.6 20.9 0.00 0.01 0.00 48 1004.1
20260507161543 53 242 13.0 20.9 0.00 0.01 0.00 48 1004.2
20260507161016 54 285 9.6 18.2 0.00 0.01 0.00 48 1004.0
20260507160517 53 234 13.0 17.4 0.00 0.01 0.00 48 1004.0
20260507160030 53 240 12.2 20.0 0.00 0.01 0.00 49 1004.2
20260507155516 53 292 7.8 20.0 0.00 0.05 0.00 50 1004.1
20260507155016 53 278 13.9 20.0 0.00 0.05 0.00 50 1004.1
20260507154534 53 236 13.0 20.9 0.00 0.05 0.00 54 1004.1
20260507154017 53 231 17.4 21.7 0.00 0.05 0.00 58 1004.0
20260507153520 52 236 16.5 22.6 0.00 0.05 0.00 58 1004.1
20260507153033 52 240 17.4 22.6 0.00 0.05 0.00 61 1004.1
20260507152517 51 225 13.0 23.5 0.00 0.05 0.00 63 1004.1
20260507152026 51 244 14.8 23.5 0.00 0.05 0.00 60 1004.2
20260507151531 51 227 15.6 23.5 0.00 0.05 0.00 61 1004.1
20260507151017 50 207 15.6 21.7 0.00 0.05 0.00 61 1004.1
20260507150523 51 226 15.6 21.7 0.00 0.05 0.00 61 1004.2
20260507150037 50 223 14.8 20.9 0.00 0.05 0.00 62 1004.2
20260507145517 50 229 16.5 20.9 0.00 0.10 0.00 62 1004.3
20260507145023 50 222 13.9 21.7 0.00 0.10 0.00 61 1004.3
20260507144532 50 238 14.8 21.7 0.00 0.10 0.00 62 1004.3
20260507144017 50 211 14.8 20.9 0.00 0.10 0.00 63 1004.4
20260507143519 50 231 15.6 20.9 0.00 0.10 0.00 63 1004.3
20260507143043 50 217 13.9 19.1 0.00 0.10 0.00 63 1004.4
20260507142518 49 229 13.0 19.1 0.00 0.10 0.00 62 1004.4
20260507142027 49 237 13.9 20.0 0.00 0.10 0.00 65 1004.5
20260507141546 49 214 13.9 20.0 0.00 0.10 0.00 65 1004.5
20260507141016 49 233 15.6 20.0 0.00 0.10 0.00 64 1004.6
20260507140519 49 225 13.9 18.2 0.00 0.10 0.00 67 1004.5
20260507140035 49 230 13.9 18.2 0.00 0.10 0.00 65 1004.6
20260507135517 49 241 13.0 16.5 0.00 0.13 0.00 67 1004.6
20260507135017 48 236 13.0 16.5 0.00 0.13 0.00 65 1004.6
20260507134535 48 232 13.0 17.4 0.00 0.13 0.00 67 1004.6
20260507134016 48 213 13.0 17.4 0.00 0.13 0.00 67 1004.6
20260507133517 48 240 13.0 16.5 0.00 0.13 0.00 66 1004.6
20260507133047 48 240 12.2 18.2 0.00 0.13 0.00 70 1004.8
20260507132523 47 242 13.9 18.2 0.00 0.13 0.00 68 1004.8
20260507132016 47 258 12.2 18.2 0.00 0.13 0.00 69 1004.8
20260507131537 47 237 13.9 18.2 0.00 0.13 0.00 72 1004.9
20260507131018 46 222 13.0 17.4 0.00 0.13 0.00 73 1004.9
20260507130517 45 229 13.0 17.4 0.00 0.13 0.00 72 1005.0
20260507130036 45 246 13.0 16.5 0.00 0.13 0.00 73 1005.0
20260507125518 44 244 10.4 15.6 0.00 0.13 0.00 76 1005.0
20260507125016 44 229 11.3 15.6 0.00 0.13 0.00 75 1005.1
20260507124532 44 257 8.7 16.5 0.00 0.13 0.00 77 1005.1
20260507124017 44 243 11.3 16.5 0.00 0.13 0.00 75 1005.1
20260507123522 44 237 11.3 15.6 0.00 0.13 0.00 77 1005.2
20260507123038 44 257 10.4 16.5 0.00 0.13 0.00 75 1005.3
20260507122518 43 255 13.0 18.2 0.00 0.13 0.00 75 1005.2
20260507122017 43 260 13.0 18.2 0.00 0.13 0.00 75 1005.2
20260507121530 43 250 12.2 15.6 0.00 0.13 0.00 76 1005.2
20260507121017 43 241 10.4 15.6 0.00 0.13 0.00 79 1005.3
20260507120516 43 246 10.4 15.6 0.00 0.13 0.00 81 1005.3
20260507120037 43 243 11.3 15.6 0.00 0.13 0.00 83 1005.2
20260507115517 43 250 11.3 15.6 0.00 0.13 0.00 83 1005.2
20260507115016 43 235 10.4 15.6 0.00 0.13 0.00 85 1005.2
20260507114542 43 237 11.3 15.6 0.00 0.13 0.00 85 1005.1
20260507114016 44 250 11.3 18.2 0.00 0.13 0.00 85 1005.1
20260507113517 44 250 13.0 18.2 0.00 0.13 0.00 85 1005.3
20260507113036 44 244 11.3 15.6 0.00 0.13 0.00 87 1005.2
20260507112517 44 238 11.3 17.4 0.00 0.13 0.00 88 1005.1
20260507112020 44 242 11.3 17.4 0.00 0.13 0.00 88 1005.0
20260507111532 44 244 11.3 14.8 0.00 0.13 0.00 89 1005.0
20260507111017 43 221 11.3 14.8 0.00 0.13 0.00 90 1004.9
20260507110518 43 238 9.6 12.2 0.00 0.13 0.00 91 1005.0
20260507110039 43 227 8.7 12.2 0.00 0.13 0.00 91 1004.8
20260507105517 43 246 8.7 12.2 0.00 0.13 0.00 91 1004.9
20260507105017 43 235 8.7 11.3 0.00 0.13 0.00 91 1004.8
20260507104531 43 250 9.6 11.3 0.00 0.13 0.00 91 1004.8
20260507104017 43 239 7.0 11.3 0.00 0.13 0.00 91 1004.7
20260507103516 43 244 8.7 10.4 0.00 0.13 0.00 91 1004.7
20260507103043 43 246 7.0 9.6 0.00 0.13 0.00 92 1004.8
20260507102516 43 223 6.1 8.7 0.00 0.13 0.00 92 1004.8
20260507102017 42 221 4.3 7.8 0.00 0.13 0.00 92 1004.9
20260507101538 42 239 5.2 7.8 0.00 0.13 0.00 92 1004.8
20260507101017 42 243 4.3 7.0 0.00 0.13 0.00 92 1005.0
20260507100518 42 232 4.3 8.7 0.00 0.13 0.00 91 1004.9
20260507100037 42 249 5.2 8.7 0.00 0.13 0.00 91 1004.9
20260507095520 42 238 4.3 7.8 0.00 0.13 0.00 91 1004.9
20260507095017 42 236 4.3 7.8 0.00 0.13 0.00 91 1005.0
20260507094536 42 244 5.2 9.6 0.00 0.13 0.00 91 1005.0
20260507094023 42 248 4.3 9.6 0.00 0.13 0.00 91 1005.1
20260507093515 42 244 7.0 9.6 0.00 0.13 0.00 91 1005.3
20260507093032 42 250 5.2 9.6 0.00 0.13 0.00 91 1005.1
20260507092517 42 236 6.1 9.6 0.00 0.13 0.00 91 1005.1
20260507092016 42 240 7.0 10.4 0.00 0.13 0.00 91 1005.0
20260507091535 42 243 6.1 10.4 0.00 0.13 0.00 92 1004.9
20260507091018 42 233 6.1 8.7 0.00 0.13 0.00 92 1005.0
20260507090517 42 229 5.2 7.8 0.00 0.13 0.00 92 1004.9
20260507090035 42 225 3.5 6.1 0.00 0.13 0.00 92 1004.9
20260507085517 42 229 4.3 6.1 0.00 0.13 0.00 92 1004.9
20260507085017 42 212 3.5 6.1 0.00 0.13 0.00 92 1005.0
20260507084539 42 226 3.5 6.1 0.00 0.13 0.00 92 1004.9
20260507084021 42 240 3.5 6.1 0.00 0.13 0.00 92 1005.0
20260507083517 42 223 2.6 4.3 0.00 0.13 0.00 92 1005.1
20260507083033 42 237 2.6 6.1 0.00 0.13 0.00 92 1005.2
20260507082518 42 229 3.5 7.0 0.00 0.13 0.00 92 1005.2
20260507082017 42 234 4.3 7.0 0.00 0.13 0.00 92 1005.2
20260507081537 42 250 3.5 6.1 0.00 0.13 0.00 92 1005.1
20260507081017 42 245 3.5 4.3 0.00 0.13 0.00 92 1005.3
20260507080516 42 258 2.6 4.3 0.00 0.13 0.00 92 1005.3
20260507080041 42 257 2.6 4.3 0.00 0.13 0.00 92 1005.2
20260507075517 42 244 2.6 4.3 0.00 0.13 0.00 92 1005.3
20260507075017 42 251 1.7 3.5 0.00 0.13 0.00 92 1005.4
20260507074530 42 248 1.7 4.3 0.00 0.13 0.00 92 1005.4
20260507074016 42 242 2.6 4.3 0.00 0.13 0.00 92 1005.4
20260507073519 42 240 2.6 4.3 0.00 0.13 0.00 92 1005.3
20260507073031 42 232 1.7 3.5 0.00 0.13 0.00 92 1005.3
20260507072517 42 230 2.6 3.5 0.00 0.13 0.00 92 1005.4
20260507072016 42 237 1.7 6.1 0.00 0.13 0.00 92 1005.3
20260507071537 42 241 2.6 7.0 0.00 0.13 0.00 91 1005.3
20260507071017 42 239 4.3 7.0 0.00 0.13 0.00 92 1005.4
20260507070517 41 254 2.6 4.3 0.00 0.13 0.00 92 1005.5
20260507070044 41 240 1.7 2.6 0.00 0.13 0.00 92 1005.5
20260507065516 41 236 1.7 2.6 0.00 0.13 0.00 92 1005.4
20260507065017 41 244 1.7 2.6 0.00 0.13 0.00 92 1005.4
20260507064544 41 244 1.7 2.6 0.00 0.13 0.00 92 1005.4
20260507064018 41 244 1.7 1.7 0.00 0.13 0.00 92 1005.4
20260507063518 41 244 1.7 3.5 0.00 0.13 0.00 92 1005.5
20260507063036 41 242 1.7 3.5 0.00 0.13 0.00 92 1005.4
20260507062518 41 239 2.6 4.3 0.00 0.13 0.00 91 1005.5
20260507062017 41 237 2.6 4.3 0.00 0.13 0.00 92 1005.6
20260507061532 41 257 1.7 3.5 0.00 0.13 0.00 92 1005.6
20260507061020 42 242 2.6 5.2 0.00 0.13 0.00 91 1005.6
20260507060515 42 233 2.6 5.2 0.00 0.13 0.00 91 1005.6
20260507060032 41 232 3.5 5.2 0.00 0.13 0.00 92 1005.7
20260507055516 41 234 2.6 4.3 0.00 0.13 0.00 92 1005.8
20260507055011 42 227 2.6 3.5 0.00 0.13 0.00 92 1005.8
20260507054530 42 223 2.6 3.5 0.00 0.13 0.00 92 1005.9
20260507054015 41 225 2.6 4.3 0.00 0.13 0.00 92 1006.0
20260507053516 41 221 2.6 4.3 0.00 0.13 0.00 92 1006.1
20260507053032 41 213 2.6 5.2 0.00 0.13 0.00 92 1006.1
20260507052515 41 225 2.6 5.2 0.00 0.13 0.00 92 1006.1
20260507052016 41 228 3.5 5.2 0.00 0.13 0.00 92 1006.1
20260507051532 41 238 3.5 5.2 0.00 0.13 0.00 92 1006.2
20260507051016 41 229 3.5 5.2 0.00 0.13 0.00 91 1006.2
20260507050515 42 227 3.5 5.2 0.00 0.13 0.00 91 1006.4
20260507050033 42 222 3.5 5.2 0.00 0.13 0.00 91 1006.5
20260507045515 42 229 3.5 5.2 0.00 0.13 0.00 91 1006.6
20260507045016 42 235 2.6 4.3 0.00 0.13 0.00 91 1006.6
20260507044530 42 240 2.6 4.3 0.00 0.13 0.00 91 1006.6
20260507044015 42 238 2.6 4.3 0.00 0.13 0.00 91 1006.7
20260507043516 42 229 3.5 4.3 0.00 0.13 0.00 91 1006.6
20260507043031 42 225 2.6 4.3 0.00 0.13 0.00 90 1006.7
20260507042516 42 227 2.6 4.3 0.00 0.13 0.00 90 1006.7
20260507042019 43 222 2.6 5.2 0.00 0.13 0.00 90 1006.8
20260507041533 43 221 3.5 5.2 0.00 0.13 0.00 90 1006.9
20260507041019 43 229 3.5 7.0 0.00 0.13 0.00 90 1006.8
20260507040517 43 221 4.3 7.0 0.00 0.13 0.00 90 1006.9
20260507040037 43 225 5.2 7.0 0.00 0.13 0.00 90 1006.9
20260507035520 43 224 4.3 8.7 0.00 0.13 0.13 90 1007.0
20260507035016 43 234 5.2 8.7 0.00 0.13 0.13 90 1007.0
20260507034539 43 244 5.2 7.8 0.00 0.13 0.13 90 1007.0
20260507034020 43 236 5.2 7.8 0.00 0.13 0.13 89 1007.1
20260507033516 43 242 5.2 7.8 0.00 0.13 0.13 89 1007.1
20260507033043 43 230 5.2 7.8 0.00 0.13 0.13 89 1007.1
20260507032517 43 228 5.2 7.8 0.00 0.13 0.13 89 1007.2
20260507032019 43 231 4.3 7.8 0.00 0.13 0.13 89 1007.1
20260507031550 43 232 4.3 7.8 0.00 0.13 0.13 89 1007.2
20260507031021 43 233 4.3 7.8 0.00 0.13 0.13 89 1007.2
20260507030516 44 232 4.3 7.8 0.00 0.13 0.13 89 1007.3
20260507030033 44 232 5.2 8.7 0.00 0.13 0.13 88 1007.3
20260507025516 44 213 5.2 8.7 0.00 0.13 0.13 88 1007.4
20260507025020 44 235 5.2 8.7 0.00 0.13 0.13 88 1007.4
20260507024534 44 238 5.2 9.6 0.00 0.13 0.13 87 1007.3
20260507024015 44 238 5.2 9.6 0.00 0.13 0.13 87 1007.4
20260507023515 44 227 5.2 7.8 0.00 0.13 0.13 87 1007.5
20260507023030 44 230 5.2 8.7 0.00 0.13 0.13 87 1007.5
20260507022516 44 226 5.2 8.7 0.00 0.13 0.13 88 1007.5
20260507022016 44 229 6.1 8.7 0.00 0.13 0.13 88 1007.6
20260507021530 44 223 5.2 8.7 0.00 0.13 0.13 88 1007.6
20260507021015 44 228 4.3 8.7 0.00 0.13 0.13 88 1007.6
20260507020516 44 233 5.2 7.8 0.00 0.13 0.13 88 1007.7
20260507020030 44 226 5.2 7.8 0.00 0.13 0.13 88 1007.7
20260507015515 44 232 4.3 7.0 0.00 0.13 0.13 88 1007.7
20260507015015 44 219 4.3 6.1 0.00 0.13 0.13 89 1007.8